Weather History for Venice, Italy

Change the Weather History Date:

Friday, February 14, 2014

  Actual Average Record
Temperature  
Mean Temperature 48 °F -  
Max Temperature 55 °F 50 °F 59 °F (1998)
Min Temperature 40 °F 36 °F 21 °F (2012)
Degree Days  
Heating Degree Days 18    
Moisture  
Dew Point 42 °F    
Average Humidity 84    
Maximum Humidity 100    
Minimum Humidity 56    
Precipitation  
Precipitation 0.00 in 0.07 in - ()
Sea Level Pressure  
Sea Level Pressure 29.85 in    
Wind  
Wind Speed 1 mph ()    
Max Wind Speed 5 mph    
Max Gust Speed -    
Visibility 5.1 miles    
Events Fog    
Averages and records for this station are not official NWS values.
T = Trace of Precipitation, MM = Missing Value Source: Averaged Metar Reports

Daily Weather History Graph

Daily Weather History Graph

Search for Another Location

Airport:

Trip Planner

Search our weather history database for the weather conditions in past years. The results will help you decide how hot, cold, wet, or windy it might be!

Date:

Astronomy

Feb. 14, 2014 Rise Set
Actual Time 7:14 AM CET 5:35 PM CET
Civil Twilight 6:43 AM CET 6:06 PM CET
Nautical Twilight 6:09 AM CET 6:41 PM CET
Astronomical Twilight 5:34 AM CET 7:15 PM CET
Moon 5:25 PM CET (2/14) 6:30 AM CET (2/14)
Length of Visible Light 11h 22m
Length of Day
10h 21m
Full, 100% of the Moon is Illuminated
Feb 14
Full
Feb 15
Full
Feb 22
Last Quarter
Mar 1
New
Mar 8
First Quarter

Hourly Weather History & Observations

Time (CET) Temp. Windchill Dew Point Humidity Pressure Visibility Wind Dir Wind Speed Gust Speed Precip Events Conditions
12:20 AM 44.6 °F - 42.8 °F 93% 29.62 in 5.6 mi Variable 2.3 mph - N/A   Scattered Clouds
12:50 AM 42.8 °F - 41.0 °F 93% 29.62 in 5.0 mi Variable 1.2 mph - N/A   Scattered Clouds
1:00 AM 44 °F - 42 °F 90% 29.64 in 5 mi NW 1.2 mph - -   Mist
1:20 AM 44.6 °F - 42.8 °F 93% 29.62 in 5.0 mi Variable 2.3 mph - N/A   Scattered Clouds
1:50 AM 42.8 °F - 42.8 °F 100% 29.62 in 5.0 mi Variable 1.2 mph - N/A   Scattered Clouds
2:20 AM 42.8 °F - 41.0 °F 93% 29.65 in 3.1 mi Variable 1.2 mph - N/A   Scattered Clouds
2:50 AM 44.6 °F 42.2 °F 42.8 °F 93% 29.65 in 3.1 mi West 4.6 mph - N/A   Scattered Clouds
3:20 AM 44.6 °F 42.2 °F 42.8 °F 93% 29.65 in 3.7 mi WSW 4.6 mph - N/A   Mostly Cloudy
3:50 AM 42.8 °F - 41.0 °F 93% 29.65 in 5.0 mi Variable 2.3 mph - N/A   Mostly Cloudy
4:00 AM 43 °F - 42 °F 93% 29.65 in 5 mi West 2.3 mph - -   Mist
4:20 AM 42.8 °F - 41.0 °F 93% 29.65 in 4.3 mi Calm Calm - N/A   Mostly Cloudy
4:50 AM 42.8 °F - 39.2 °F 87% 29.68 in 3.7 mi Calm Calm - N/A   Mostly Cloudy
5:20 AM 42.8 °F - 41.0 °F 93% 29.68 in 3.7 mi Variable 1.2 mph - N/A   Mostly Cloudy
5:50 AM 41.0 °F - 39.2 °F 93% 29.68 in 4.3 mi Calm Calm - N/A   Scattered Clouds
6:20 AM 42.8 °F - 41.0 °F 93% 29.71 in 4.3 mi Calm Calm - N/A   Scattered Clouds
6:50 AM 41.0 °F - 39.2 °F 93% 29.77 in 4.3 mi Variable 1.2 mph - N/A   Unknown
7:00 AM 40 °F - 38 °F 91% 29.76 in 4 mi ENE 2.3 mph - -   Mist
7:20 AM 41.0 °F - 39.2 °F 93% 29.77 in 4.3 mi Calm Calm - N/A   Unknown
7:50 AM 41.0 °F - 39.2 °F 93% 29.80 in 5.6 mi Calm Calm - N/A Fog Fog
8:20 AM 41.0 °F - 39.2 °F 93% 29.80 in 5.0 mi Calm Calm - N/A Fog Fog
8:50 AM 42.8 °F - 42.8 °F 100% 29.83 in 5.6 mi Calm Calm - N/A   Unknown
9:20 AM 44.6 °F - 44.6 °F 100% 29.83 in 4.3 mi Variable 2.3 mph - N/A   Unknown
9:50 AM 46.4 °F - 44.6 °F 93% 29.86 in 4.3 mi Variable 2.3 mph - N/A   Unknown
10:00 AM 46 °F - 45 °F 94% 29.86 in 4 mi NW 2.3 mph - -   Mist
10:20 AM 48.2 °F - 46.4 °F 93% 29.89 in 5.6 mi Variable 2.3 mph - N/A   Unknown
10:50 AM 50.0 °F - 46.4 °F 87% 29.89 in - Variable 2.3 mph - N/A   Clear
11:20 AM 50.0 °F - 44.6 °F 82% 29.89 in - Calm Calm - N/A   Clear
11:50 AM 51.8 °F - 42.8 °F 71% 29.92 in - Calm Calm - N/A   Clear
12:20 PM 51.8 °F - 44.6 °F 76% 29.92 in - Calm Calm - N/A   Clear
12:50 PM 53.6 °F - 46.4 °F 77% 29.92 in - Variable 3.5 mph - N/A   Clear
1:00 PM 52 °F - 45 °F 68% 29.92 in 19 mi SE 2.3 mph - -   Clear
1:20 PM 53.6 °F - 44.6 °F 72% 29.92 in - Variable 2.3 mph - N/A   Clear
1:50 PM 53.6 °F - 42.8 °F 67% 29.92 in - Variable 1.2 mph - N/A   Clear
2:20 PM 55.4 °F - 44.6 °F 67% 29.92 in - Variable 1.2 mph - N/A   Clear
2:50 PM 55.4 °F - 41.0 °F 58% 29.92 in - Variable 1.2 mph - N/A   Clear
3:20 PM 55.4 °F - 44.6 °F 67% 29.92 in - Variable 2.3 mph - N/A   Clear
3:50 PM 53.6 °F - 42.8 °F 67% 29.92 in - Variable 3.5 mph - N/A   Clear
4:00 PM 54 °F - 43 °F 56% 29.94 in 44 mi SE 2.3 mph - -   Scattered Clouds
4:20 PM 53.6 °F - 41.0 °F 62% 29.92 in - Variable 2.3 mph - N/A   Clear
4:50 PM 51.8 °F - 41.0 °F 67% 29.92 in - Variable 1.2 mph - N/A   Clear
5:20 PM 50.0 °F - 42.8 °F 76% 29.92 in - Variable 1.2 mph - N/A   Clear
5:50 PM 50.0 °F - 42.8 °F 76% 29.95 in - Variable 1.2 mph - N/A   Clear
6:20 PM 48.2 °F - 42.8 °F 82% 29.95 in - Variable 1.2 mph - N/A   Clear
6:50 PM 50.0 °F - 44.6 °F 82% 29.98 in - Variable 1.2 mph - N/A   Clear
7:00 PM 49 °F - 43 °F 73% 29.98 in 31 mi SE 1.2 mph - -   Clear
7:20 PM 48.2 °F - 44.6 °F 87% 29.98 in - Variable 2.3 mph - N/A   Clear
7:50 PM 48.2 °F - 42.8 °F 82% 29.98 in - Calm Calm - N/A   Clear
8:20 PM 48.2 °F - 42.8 °F 82% 29.98 in - Calm Calm - N/A   Clear
8:50 PM 46.4 °F - 41.0 °F 81% 29.98 in - Calm Calm - N/A   Clear
9:20 PM 46.4 °F - 42.8 °F 87% 29.98 in - Calm Calm - N/A   Clear
9:50 PM 46.4 °F - 41.0 °F 81% 29.98 in - Calm Calm - N/A   Clear
10:00 PM 46 °F - 42 °F 80% 30.00 in 7 mi Calm Calm - -   Clear
10:20 PM 44.6 °F - 41.0 °F 87% 29.98 in - Variable 2.3 mph - N/A   Clear
10:50 PM 46.4 °F 45.2 °F 42.8 °F 87% 30.01 in 5.0 mi Variable 3.5 mph - N/A   Unknown
11:20 PM 44.6 °F - 42.8 °F 93% 30.01 in - Variable 2.3 mph - N/A   Clear
11:50 PM 44.6 °F - 42.8 °F 93% 30.01 in - Variable 2.3 mph - N/A   Clear